Location: Filler
(36.7551°N, 30.4456°E)
Time: 09:56:50
(UTC+00:00)

Cosmos 1535 Rocket - Pass Details

Date: 19 June 2024
Orbit: 948 x 1004 km, 83.0° (Epoch: 22 July)

Event Time Altitude Azimuth Distance (km) Brightness Sun altitude
Exits shadow 00:54:41 23° 197° (SSW) 1,928 5.5 -17.0°
Maximum altitude 00:58:42 71° 277° (W) 1,013 4.4 -16.5°
Drops below altitude 10° 01:04:51 10° 2° (N) 2,689 7.5 -15.7°
Sets 01:07:21 0° 5° (N) 3,634 8.3 -15.3°
